TimeMST,TemperatureF,Dew PointF,Humidity,Sea Level PressureIn,VisibilityMPH,Wind Direction,Wind SpeedMPH,Gust SpeedMPH,PrecipitationIn,Events,Conditions,WindDirDegrees,DateUTC
12:15 AM,26.6,19.4,74,30.21,10.0,Calm,Calm,-,N/A,,Clear,0,2013-12-02 07:15:00
12:35 AM,24.8,19.4,80,30.21,10.0,West,5.8,-,N/A,,Clear,270,2013-12-02 07:35:00
12:55 AM,26.6,19.4,74,30.21,10.0,WSW,3.5,-,N/A,,Clear,250,2013-12-02 07:55:00
1:15 AM,24.8,17.6,74,30.21,10.0,South,3.5,-,N/A,,Clear,190,2013-12-02 08:15:00
1:35 AM,21.2,17.6,86,30.21,10.0,East,3.5,-,N/A,,Clear,100,2013-12-02 08:35:00
1:55 AM,21.2,17.6,86,30.20,10.0,Calm,Calm,-,N/A,,Clear,0,2013-12-02 08:55:00
2:15 AM,19.4,15.8,86,30.20,10.0,NNE,3.5,-,N/A,,Clear,30,2013-12-02 09:15:00
2:35 AM,19.4,15.8,86,30.20,10.0,North,4.6,-,N/A,,Clear,360,2013-12-02 09:35:00
2:55 AM,21.2,17.6,86,30.19,10.0,North,4.6,-,N/A,,Clear,350,2013-12-02 09:55:00
3:15 AM,23.0,19.4,86,30.19,10.0,Calm,Calm,-,N/A,,Clear,0,2013-12-02 10:15:00
3:35 AM,19.4,15.8,86,30.18,10.0,North,3.5,-,N/A,,Clear,10,2013-12-02 10:35:00
3:55 AM,19.4,17.6,93,30.16,10.0,NE,5.8,-,N/A,,Clear,50,2013-12-02 10:55:00
4:15 AM,19.4,15.8,86,30.16,10.0,NE,4.6,-,N/A,,Clear,40,2013-12-02 11:15:00
4:35 AM,19.4,15.8,86,30.15,10.0,Calm,Calm,-,N/A,,Clear,0,2013-12-02 11:35:00
4:55 AM,15.8,12.2,86,30.14,10.0,Calm,Calm,-,N/A,,Clear,0,2013-12-02 11:55:00
5:15 AM,17.6,12.2,79,30.15,10.0,NNW,3.5,-,N/A,,Clear,330,2013-12-02 12:15:00
5:35 AM,15.8,10.4,79,30.15,10.0,North,3.5,-,N/A,,Clear,350,2013-12-02 12:35:00
5:55 AM,17.6,15.8,93,30.14,10.0,Calm,Calm,-,N/A,,Clear,0,2013-12-02 12:55:00
6:15 AM,15.8,12.2,86,30.14,10.0,Calm,Calm,-,N/A,,Clear,0,2013-12-02 13:15:00
6:35 AM,15.8,10.4,79,30.14,10.0,NE,3.5,-,N/A,,Clear,50,2013-12-02 13:35:00
6:55 AM,15.8,12.2,86,30.13,10.0,NNW,4.6,-,N/A,,Clear,330,2013-12-02 13:55:00
7:15 AM,14.0,12.2,93,30.14,10.0,North,8.1,-,N/A,,Clear,10,2013-12-02 14:15:00
7:35 AM,17.6,15.8,93,30.13,10.0,North,4.6,-,N/A,,Clear,360,2013-12-02 14:35:00
7:55 AM,21.2,17.6,86,30.13,10.0,North,4.6,-,N/A,,Clear,10,2013-12-02 14:55:00
8:15 AM,23.0,19.4,86,30.13,10.0,North,3.5,-,N/A,,Clear,350,2013-12-02 15:15:00
8:35 AM,24.8,21.2,86,30.13,10.0,North,3.5,-,N/A,,Clear,10,2013-12-02 15:35:00
8:55 AM,26.6,21.2,80,30.12,10.0,Calm,Calm,-,N/A,,Clear,0,2013-12-02 15:55:00
9:15 AM,24.8,19.4,80,30.11,10.0,Calm,Calm,-,N/A,,Clear,0,2013-12-02 16:15:00
9:35 AM,28.4,21.2,74,30.12,10.0,NNW,3.5,-,N/A,,Clear,330,2013-12-02 16:35:00
9:55 AM,28.4,21.2,74,30.11,10.0,Calm,Calm,-,N/A,,Clear,0,2013-12-02 16:55:00
10:15 AM,30.2,21.2,69,30.10,10.0,Calm,Calm,-,N/A,,Clear,0,2013-12-02 17:15:00
10:35 AM,32.0,21.2,64,30.09,10.0,Calm,Calm,-,N/A,,Clear,0,2013-12-02 17:35:00
10:55 AM,33.8,23.0,65,30.07,10.0,SSE,3.5,-,N/A,,Clear,150,2013-12-02 17:55:00
11:15 AM,33.8,23.0,65,30.06,10.0,SSW,5.8,-,N/A,,Clear,200,2013-12-02 18:15:00
11:35 AM,35.6,24.8,65,30.05,10.0,South,4.6,-,N/A,,Clear,190,2013-12-02 18:35:00
11:55 AM,35.6,24.8,65,30.03,10.0,SW,3.5,-,N/A,,Clear,220,2013-12-02 18:55:00
12:15 PM,37.4,24.8,60,30.02,10.0,SSW,4.6,-,N/A,,Clear,200,2013-12-02 19:15:00
12:35 PM,37.4,24.8,60,30.01,10.0,SW,5.8,-,N/A,,Clear,220,2013-12-02 19:35:00
12:55 PM,39.2,24.8,56,30.01,10.0,SSW,3.5,-,N/A,,Clear,200,2013-12-02 19:55:00
1:15 PM,39.2,24.8,56,30.00,10.0,Calm,Calm,-,N/A,,Clear,0,2013-12-02 20:15:00
1:35 PM,42.8,26.6,53,30.00,10.0,SW,5.8,-,N/A,,Clear,220,2013-12-02 20:35:00
1:55 PM,42.8,24.8,49,29.98,10.0,SW,5.8,-,N/A,,Clear,230,2013-12-02 20:55:00
2:15 PM,42.8,24.8,49,29.98,10.0,South,5.8,-,N/A,,Clear,170,2013-12-02 21:15:00
2:35 PM,44.6,24.8,46,29.97,10.0,South,5.8,-,N/A,,Clear,180,2013-12-02 21:35:00
2:55 PM,44.6,24.8,46,29.96,10.0,SW,13.8,-,N/A,,Clear,220,2013-12-02 21:55:00
3:15 PM,44.6,24.8,46,29.96,10.0,SW,16.1,-,N/A,,Clear,220,2013-12-02 22:15:00
3:35 PM,44.6,24.8,46,29.95,10.0,SW,15.0,-,N/A,,Clear,220,2013-12-02 22:35:00
3:55 PM,44.6,24.8,46,29.95,10.0,SW,15.0,-,N/A,,Clear,220,2013-12-02 22:55:00
4:15 PM,44.6,24.8,46,29.95,10.0,SW,13.8,-,N/A,,Clear,230,2013-12-02 23:15:00
4:35 PM,42.8,23.0,46,29.94,10.0,SW,15.0,-,N/A,,Clear,230,2013-12-02 23:35:00
4:55 PM,42.8,21.2,42,29.94,10.0,SSW,11.5,-,N/A,,Clear,210,2013-12-02 23:55:00
5:15 PM,39.2,21.2,49,29.94,10.0,SW,11.5,-,N/A,,Clear,230,2013-12-03 00:15:00
5:35 PM,39.2,23.0,52,29.93,10.0,SW,13.8,-,N/A,,Clear,230,2013-12-03 00:35:00
5:55 PM,39.2,21.2,49,29.93,10.0,SW,18.4,-,N/A,,Clear,230,2013-12-03 00:55:00
6:15 PM,39.2,21.2,49,29.93,10.0,SW,17.3,20.7,N/A,,Clear,230,2013-12-03 01:15:00
6:35 PM,37.4,21.2,52,29.93,10.0,WSW,12.7,-,N/A,,Clear,240,2013-12-03 01:35:00
6:55 PM,37.4,21.2,52,29.93,10.0,SSE,6.9,-,N/A,,Clear,150,2013-12-03 01:55:00
7:15 PM,35.6,21.2,56,29.93,10.0,SSE,5.8,-,N/A,,Clear,150,2013-12-03 02:15:00
7:35 PM,37.4,19.4,48,29.93,10.0,NE,3.5,-,N/A,,Clear,40,2013-12-03 02:35:00
7:55 PM,37.4,19.4,48,29.93,10.0,SSW,5.8,-,N/A,,Clear,200,2013-12-03 02:55:00
8:15 PM,37.4,19.4,48,29.93,10.0,West,4.6,-,N/A,,Clear,280,2013-12-03 03:15:00
8:35 PM,33.8,17.6,52,29.93,10.0,North,4.6,-,N/A,,Clear,10,2013-12-03 03:35:00
8:55 PM,33.8,17.6,52,29.92,10.0,Calm,Calm,-,N/A,,Clear,0,2013-12-03 03:55:00
9:15 PM,32.0,17.6,55,29.92,10.0,Calm,Calm,-,N/A,,Clear,0,2013-12-03 04:15:00
9:35 PM,30.2,15.8,55,29.91,10.0,Calm,Calm,-,N/A,,Clear,0,2013-12-03 04:35:00
9:55 PM,35.6,17.6,48,29.90,10.0,South,4.6,-,N/A,,Clear,190,2013-12-03 04:55:00
10:15 PM,32.0,15.8,51,29.91,10.0,Calm,Calm,-,N/A,,Clear,0,2013-12-03 05:15:00
10:35 PM,33.8,17.6,52,29.90,10.0,Calm,Calm,-,N/A,,Clear,0,2013-12-03 05:35:00
10:55 PM,30.2,17.6,60,29.89,10.0,SSE,3.5,-,N/A,,Clear,160,2013-12-03 05:55:00
11:15 PM,28.4,17.6,64,29.89,10.0,ENE,3.5,-,N/A,,Clear,60,2013-12-03 06:15:00
11:35 PM,28.4,15.8,59,29.88,10.0,NE,3.5,-,N/A,,Clear,50,2013-12-03 06:35:00
11:55 PM,24.8,15.8,69,29.88,10.0,Calm,Calm,-,N/A,,Clear,0,2013-12-03 06:55:00